Location: Boock
(53.4906°N, 14.2455°E)
Time: 04:28:29
(UTC+00:00)

Daily predictions for brighter satellites

Satellite Brightness Start Highest point End
(mag) Time Altitude Azimuth Time Altitude Azimuth Time Altitude Azimuth
Cosmos 1025 Rocket 4.3 00:02:38 10° NNW 00:06:15 27° W 00:06:21 27° W
Okean 1 Rocket 2.9 00:09:30 62° SSW 00:10:13 88° W 00:14:38 10° N
SJ 16-02 1.3 00:09:53 57° SSE 00:10:35 69° ESE 00:14:59 10° NNE
Okean 2 Rocket 4.1 00:10:41 31° W 00:11:43 35° WNW 00:15:54 10° N
SL-16 R/B 2.6 00:07:24 10° NW 00:12:48 45° WSW 00:13:48 41° SW
SL-14 R/B 3.1 00:12:43 10° N 00:16:40 82° E 00:17:08 67° SSE
Cosmos 2263 Rocket 3.6 00:14:58 20° SE 00:17:10 26° ESE 00:21:42 10° NE
Cosmos 724 4.2 00:11:30 10° NW 00:17:29 73° SW 00:20:59 27° SSE
Cosmos 2142 Rocket 4.5 00:17:47 38° S 00:20:30 88° W 00:26:58 10° N
MOZ.5/SAFIR/RUBIN 5/SL-8 3.7 00:22:13 45° S 00:23:40 83° WSW 00:28:25 10° NNW
SL-19 R/B 4.4 00:18:44 10° NNE 00:24:37 72° ESE 00:26:52 37° S
Cosmos 158 Rocket 4.5 00:23:49 10° NW 00:28:55 44° WSW 00:29:59 39° SW
Cosmos 1937 Rocket 4.1 00:27:08 33° SSE 00:29:04 48° ESE 00:34:10 10° NE
Okean 1-7 Rocket 3.6 00:25:15 10° N 00:29:43 78° ENE 00:31:13 41° SSE
ADEOS II 3.9 00:25:45 10° NE 00:29:58 24° E 00:33:36 12° SE
CZ-4C R/B 3.3 00:29:47 50° SE 00:30:33 68° ENE 00:34:15 10° N
Cosmos 990 Rocket 4.0 00:29:47 42° S 00:31:30 70° ESE 00:36:39 10° NNE
Cosmos 2297 Rocket 2.8 00:28:55 27° WSW 00:31:45 51° NW 00:37:18 10° NNE
Cosmos 2266 Rocket 4.0 00:28:12 10° N 00:34:35 80° ENE 00:38:25 25° SSE
Cosmos 2112 Rocket 4.4 00:30:48 10° NW 00:35:46 45° WSW 00:36:47 40° SW
Cosmos 1455 Rocket 3.5 00:35:30 37° SSE 00:37:00 57° E 00:41:24 10° NNE
ATLAS CENTAUR R/B 3.7 00:37:35 11° SE 00:38:30 12° ESE 00:40:00 10° E
USA 229 DEB 3.8 00:36:45 33° S 00:39:39 59° SE 00:46:26 10° NE
USA 229 3.8 00:36:53 33° S 00:39:45 59° SE 00:46:31 10° NE
UNK 3.7 00:38:59 39° S 00:40:45 83° WSW 00:45:27 10° NNW
Cosmos 2237 Rocket 4.2 00:39:13 10° WNW 00:41:08 12° W 00:41:12 12° W
Cosmos 1726 3.9 00:39:49 19° SE 00:41:19 25° E 00:44:21 10° NE
Cosmos 2219 4.2 00:41:47 20° WSW 00:45:12 39° NW 00:50:29 10° NNE
Cosmos 1898 Rocket 3.4 00:43:57 39° SSW 00:45:56 82° ESE 00:51:11 10° NNE
Cosmos 1932 4.4 00:39:41 10° NW 00:46:15 84° SW 00:52:39 10° SE
Cosmos 1892 Rocket 3.7 00:42:25 10° NNW 00:46:49 58° W 00:47:51 45° SSW
Meteor 1-24 Rocket 3.8 00:42:03 10° NNW 00:47:19 53° W 00:49:06 37° SSW
Meteor 1-29 3.5 00:45:23 10° N 00:48:43 45° WNW 00:49:04 43° W
NOSS 2-3 (C) 4.4 00:48:09 33° SSE 00:49:26 41° ESE 00:54:18 10° NE
Cosmos 1674 4.5 00:47:31 10° NW 00:49:53 18° W 00:49:53 18° W
Cosmos 1680 Rocket 4.3 00:46:14 10° NW 00:50:47 31° WSW 00:51:28 30° WSW
NOSS 3-1 (A) 3.8 00:48:36 31° S 00:51:00 50° SE 00:57:17 10° NE
IRAS Rocket 4.3 00:49:56 32° S 00:52:35 65° WSW 00:58:12 10° NNW
Lacrosse 4 Rocket 4.3 00:51:30 10° NW 00:53:21 13° NNW 00:55:12 10° NNE
Spot 1 4.3 00:52:54 41° WSW 00:53:22 43° W 00:57:17 10° NNW
Cosmos 1603 3.6 00:47:48 10° NW 00:53:33 69° WSW 00:57:17 22° SSE
Cosmos 1461 3.3 00:55:29 34° WSW 00:57:18 66° NW 01:01:57 10° NE
ATLAS 3B R/B 4.2 00:58:18 10° WNW 01:04:20 35° N 01:10:31 10° ENE
CZ-2D R/B 2.2 00:59:33 10° NNE 01:05:05 87° ESE 01:08:00 29° SSW
Cosmos 1340 Rocket 2.7 01:07:07 41° S 01:08:25 89° ESE 01:12:23 10° NNE
Cosmos 1758 3.3 01:08:43 38° S 01:10:11 85° E 01:14:12 10° NNE
Cosmos 1943 3.2 01:06:32 10° NW 01:12:05 60° WSW 01:16:10 18° S
Cosmos 1766 4.5 01:11:18 25° W 01:12:14 28° WNW 01:15:38 10° N
SL-16 R/B 2.8 01:09:25 27° SSW 01:12:39 50° W 01:18:44 10° NNW
Timation 1 Rocket 4.3 01:10:12 29° SSW 01:13:25 86° ESE 01:19:26 10° NE
Cosmos 1703 4.4 01:09:41 10° N 01:13:31 43° ENE 01:17:19 10° SE
SAR-Lupe-3 4.5 01:11:35 10° NNE 01:15:12 77° WNW 01:16:16 43° SSW
Cosmos 1626 3.6 01:12:19 10° NW 01:15:15 22° W 01:15:16 22° W
Cosmos 1655 Rocket 4.4 01:09:28 10° NNW 01:15:24 46° W 01:18:27 26° SW
Cosmos 1733 4.4 01:14:34 26° W 01:15:31 30° WNW 01:18:58 10° N
IRS-1D 3.8 01:17:03 10° NNE 01:22:08 64° ESE 01:25:39 20° S
Cosmos 2227 Rocket 3.5 01:18:31 14° W 01:22:44 32° NW 01:27:47 10° NNE
NPP 3.6 01:18:29 10° NNE 01:23:54 80° WNW 01:27:05 26° SSW
Helios 1B rocket 4.3 01:21:17 10° NNW 01:24:14 19° WNW 01:25:58 15° W
Cosmos 1544 Rocket 3.6 01:22:37 31° SSW 01:24:41 73° WNW 01:29:10 10° N
Cosmos 1470 3.0 01:24:19 34° SW 01:25:45 56° WNW 01:29:42 10° N
Cosmos 1953 2.6 01:23:54 25° S 01:26:07 67° E 01:30:10 10° NNE
AQUA 3.8 01:26:54 10° NNE 01:31:42 78° WNW 01:34:26 26° SSW
CENTAUR R/B 4.1 01:27:58 10° NW 01:35:09 49° NNE 01:43:21 10° E
Resurs 1-4 Rocket 2.4 01:33:20 10° N 01:38:28 54° WNW 01:41:36 23° SW
Meteor 2-16 Rocket 4.5 01:33:14 10° NNW 01:39:26 90° E 01:45:36 10° S
Cosmos 1602 Rocket 3.6 01:37:27 10° NNW 01:41:45 58° W 01:44:26 22° SSW
Meteor 2-21 Rocket 4.4 01:36:09 10° NNW 01:42:14 76° W 01:48:18 10° S
Exosat Rocket 4.2 01:36:53 21° SSW 01:42:14 81° WNW 01:47:57 10° NNE
STPSAT 2 (USA 217) 4.5 01:39:55 10° NNW 01:44:27 75° WSW 01:48:54 10° SSE
IDEFIX/ARIANE 42P 3.8 01:42:17 10° NNE 01:47:08 37° E 01:51:57 10° SSE
NOSS 2-3 (E) 3.8 01:44:49 24° SW 01:47:35 85° NW 01:53:05 10° NE
Cosmos 2227 4.3 01:44:00 22° SW 01:47:52 77° WNW 01:53:41 10° NNE
USA 267 3.3 01:41:34 10° ESE 01:48:07 85° NNE 01:54:42 10° WNW
SJ 16-02 3.1 01:46:52 13° W 01:49:38 22° NW 01:53:05 10° N
NOSS 3-1 (C) 3.7 01:48:09 17° WSW 01:52:41 64° NNW 01:59:31 10° NE
Cosmos 1048 Rocket 4.1 01:50:16 10° NNW 01:55:16 53° WSW 02:00:18 10° S
IRS-P3 4.2 01:51:44 10° NNE 01:57:08 81° ESE 02:01:52 14° SSW
Cosmos 1908 3.4 01:56:15 15° S 01:59:22 74° E 02:03:17 10° NNE
Cosmos 2263 Rocket 2.3 01:56:40 19° SW 02:00:39 69° NW 02:06:14 10° NNE
Cosmos 2298 Rocket 4.0 01:57:57 18° SSW 02:02:00 89° WNW 02:07:23 10° NNE
Cosmos 2228 3.6 01:59:45 10° S 02:04:03 57° E 02:08:24 10° NNE
Meteor 1-16 Rocket 4.2 02:01:58 14° SSW 02:06:43 84° WNW 02:12:26 10° NNE
Cosmos 372 Rocket 4.2 02:04:37 18° SW 02:08:28 64° WNW 02:13:43 10° NNE
Meteor 1-28 Rocket 3.4 02:06:34 12° S 02:09:55 53° W 02:13:42 10° NNW
ADEOS II 2.2 02:04:55 10° NNE 02:10:09 66° WNW 02:14:32 15° SSW
SL-08 R/B 3.5 02:05:58 10° S 02:10:49 55° W 02:15:42 10° NNW
Cosmos 1937 Rocket 4.5 02:07:18 15° WSW 02:11:13 36° NW 02:16:08 10° NNE
NOSS 2-3 (D) 4.1 02:08:30 17° WSW 02:11:59 67° NW 02:17:33 10° NE
CZ-2C R/B 4.2 02:08:35 10° NNE 02:12:09 35° E 02:15:36 10° SSE
CZ-4B R/B 3.8 02:08:30 10° N 02:13:05 49° WNW 02:16:39 16° SW
Cosmos 1356 Rocket 4.1 02:11:12 10° S 02:15:14 52° E 02:19:14 10° NNE
Cosmos 1726 3.1 02:14:19 18° WSW 02:16:24 32° WNW 02:19:44 10° N
Cosmos 2285 Rocket 4.0 02:10:59 14° SSW 02:16:32 86° WNW 02:22:53 10° NNE
ATLAS CENTAUR R/B 1.3 02:13:46 17° SSW 02:16:47 71° SE 02:20:37 10° NE
Cosmos 2297 Rocket 4.3 02:13:14 10° WNW 02:17:11 19° NNW 02:21:09 10° NNE
Cosmos 1269 Rocket 4.0 02:11:53 10° NNW 02:17:13 83° WSW 02:22:31 10° SSE
Cosmos 1300 3.8 02:16:03 10° SSE 02:19:40 43° E 02:23:19 10° NNE
NOSS 3-2 (A) 4.2 02:12:51 10° NW 02:20:02 77° NE 02:28:18 10° SE
Cosmos 1553 Rocket 4.0 02:15:54 10° S 02:22:00 85° W 02:28:14 10° N
GEOS 3 Rocket 3.9 02:18:06 10° NE 02:23:30 68° NW 02:28:25 12° WSW
Cosmos 1844 Rocket 3.4 02:18:18 10° S 02:23:40 51° ESE 02:29:03 10° NE
ERS-2 2.7 02:20:09 10° SSE 02:23:45 62° ENE 02:27:23 10° N
OPS 6432 4.3 02:20:57 10° NW 02:23:56 58° SW 02:27:34 10° SSE
Meteor 1-11 4.3 02:18:17 10° NNW 02:24:00 68° W 02:29:38 10° S
Cosmos 1833 Rocket 4.2 02:19:14 10° NNW 02:24:35 41° NE 02:29:54 10° ESE
SL-08 ROCKET BODY 4.4 02:21:08 10° NNW 02:27:11 71° W 02:33:04 10° S
CZ-4C R/B 2.9 02:24:10 10° SSE 02:27:30 85° ENE 02:30:58 10° NNW
Cosmos 1745 Rocket 4.0 02:22:39 10° NNW 02:28:56 73° W 02:35:06 10° S
NOSS 3-2 (C) 4.4 02:22:56 10° NW 02:30:03 67° NE 02:38:12 10° ESE
ARIANE 5 R/B 2.6 02:25:18 10° NNE 02:30:34 78° WNW 02:35:48 10° SSW
USA 229 DEB 4.2 02:24:13 10° WSW 02:30:46 55° NNW 02:37:44 10° NE
USA 229 4.2 02:24:20 10° WSW 02:30:52 55° NNW 02:37:49 10° NE
CSL-04 DEB 4.3 02:28:04 10° S 02:31:59 72° WSW 02:36:00 10° NNW
Cosmos 2084 3.5 02:28:47 14° SW 02:32:35 89° NW 02:37:05 10° NE
Lacrosse 4 Rocket 4.4 02:32:06 10° NNW 02:33:49 12° NNE 02:35:32 10° NE
Cosmos 1758 Rocket 4.2 02:29:58 10° NNW 02:33:53 35° W 02:37:50 10° SSW
NOSS 8 (E) 4.2 02:32:47 14° SW 02:35:20 70° SE 02:38:24 10° NE
ERS-1 4.5 02:30:45 10° NNE 02:35:42 69° WNW 02:40:38 10° SSW
Cosmos 1867 3.6 02:34:55 10° NW 02:40:25 88° SW 02:45:54 10° SE
NOSS 3-1 (A) 4.0 02:36:08 10° WSW 02:41:53 56° NNW 02:48:45 10° NE
CZ-2D R/B 3.7 02:40:25 10° N 02:44:32 22° NW 02:48:38 10° WSW
Cosmos 2150 Rocket 4.5 02:42:28 11° SW 02:47:22 48° NW 02:52:32 10° NNE
Cosmos 2058 Rocket 3.3 02:43:35 10° S 02:48:02 78° E 02:52:29 10° NNE
H-2A R/B 2.0 02:44:40 10° S 02:48:42 58° WSW 02:52:47 10° NNW
CZ-2C R/B 3.5 02:46:44 10° NNE 02:51:07 42° E 02:55:33 10° S
Cosmos 2058 3.7 02:47:45 10° N 02:51:53 56° ENE 02:56:01 10° SSE
Cosmos 1825 Rocket 4.5 02:48:38 10° NNW 02:52:24 29° W 02:56:09 10° SSW
S3M 4.1 02:47:31 10° SSW 02:53:55 71° WNW 03:00:19 10° N
Cosmos 1408 4.0 02:52:34 10° N 02:56:09 44° ENE 02:59:43 10° SSE
In-Cosmos 22 Rocket 4.4 02:50:23 10° NNW 02:56:16 90° E 03:02:05 10° SSE
USA 215 3.7 02:50:00 10° ENE 02:56:27 56° SE 03:02:51 10° SW
ATLAS 3B R/B 3.8 02:49:58 10° NW 02:56:28 48° NNE 03:03:10 10° E
Landsat 5 3.6 02:53:44 10° S 02:57:41 52° W 03:01:50 10° NNW
SL-16 R/B 4.5 02:57:30 10° W 02:57:48 10° WNW 02:58:06 10° WNW
Cosmos 1125 Rocket 3.8 02:54:25 10° SW 02:59:35 55° WNW 03:04:49 10° NNE
Cosmos 1892 2.9 02:58:59 10° N 03:02:52 80° ENE 03:06:41 10° SSE
Cosmos 1953 4.2 03:00:18 10° WSW 03:02:59 17° WNW 03:05:41 10° NNW
Cosmos 1953 Rocket 4.4 02:59:51 10° NNW 03:03:54 33° W 03:07:54 10° SSW
